BTK7369 WAHS-WIII

Flight info

Callsign BTK7369
Flight time 0h 49m
Altitude 26000
Route KIDET W16 IMU
Aircraft A320/M-SDE3FGHIRWY/LB1

Departure

Time 2026-04-14 02:17
Airport Jenderal Ahmad Yani Airport (WAHS)

Arrival

Time 2026-04-14 03:06
Airport Soekarno-Hatta International Airport (WIII)
Time Latitude Longitude Altitude Speed Heading
2026-04-14 01:53 -6.96710 110.37458 19 ft 0 kts 40°
2026-04-14 02:08 -6.96712 110.37456 19 ft 3 kts 40°
2026-04-14 02:08 -6.96733 110.37439 19 ft 4 kts 39°
2026-04-14 02:08 -6.96753 110.37422 19 ft 4 kts 32°
2026-04-14 02:09 -6.96775 110.37416 19 ft 4 kts 338°
2026-04-14 02:09 -6.96795 110.37431 18 ft 2 kts 310°
2026-04-14 02:09 -6.96797 110.37433 20 ft 0 kts 310°
2026-04-14 02:11 -6.96796 110.37432 18 ft 0 kts 310°
2026-04-14 02:11 -6.96776 110.37408 18 ft 9 kts 310°
2026-04-14 02:12 -6.96720 110.37339 18 ft 17 kts 309°
2026-04-14 02:12 -6.96661 110.37269 18 ft 12 kts 310°
2026-04-14 02:12 -6.96617 110.37207 18 ft 9 kts 278°
2026-04-14 02:12 -6.96655 110.37164 18 ft 8 kts 220°
2026-04-14 02:13 -6.96699 110.37129 17 ft 8 kts 220°
2026-04-14 02:13 -6.96749 110.37086 12 ft 11 kts 220°
2026-04-14 02:13 -6.96796 110.37013 7 ft 12 kts 290°
2026-04-14 02:13 -6.96746 110.36950 6 ft 11 kts 310°
2026-04-14 02:14 -6.96685 110.36878 8 ft 16 kts 311°
2026-04-14 02:14 -6.96606 110.36785 7 ft 19 kts 310°
2026-04-14 02:14 -6.96523 110.36687 5 ft 18 kts 310°
2026-04-14 02:14 -6.96442 110.36592 4 ft 17 kts 310°
2026-04-14 02:15 -6.96370 110.36507 6 ft 15 kts 310°
2026-04-14 02:15 -6.96305 110.36430 6 ft 14 kts 309°
2026-04-14 02:15 -6.96275 110.36349 6 ft 9 kts 311°
2026-04-14 02:15 -6.96268 110.36385 4 ft 9 kts 124°
2026-04-14 02:16 -6.96293 110.36414 5 ft 1 kts 130°
2026-04-14 02:16 -6.96317 110.36443 4 ft 25 kts 130°
2026-04-14 02:16 -6.96605 110.36784 6 ft 98 kts 130°
2026-04-14 02:16 -6.97177 110.37460 6 ft 153 kts 130°
2026-04-14 02:17 -6.97927 110.38332 412 ft 167 kts 126°
2026-04-14 02:17 -6.98479 110.39403 1203 ft 165 kts 112°
2026-04-14 02:17 -6.98918 110.40464 1940 ft 165 kts 112°
2026-04-14 02:17 -6.99372 110.41586 2283 ft 183 kts 111°
2026-04-14 02:18 -6.99878 110.42837 2518 ft 205 kts 112°
2026-04-14 02:18 -7.00454 110.44245 2870 ft 230 kts 112°
2026-04-14 02:18 -7.01094 110.45796 3276 ft 250 kts 112°
2026-04-14 02:18 -7.01719 110.47459 3994 ft 258 kts 102°
2026-04-14 02:19 -7.01737 110.49259 4785 ft 262 kts 77°
2026-04-14 02:19 -7.00930 110.50912 5577 ft 269 kts 50°
2026-04-14 02:19 -6.99407 110.52029 6393 ft 277 kts 22°
2026-04-14 02:19 -6.97485 110.52285 7191 ft 286 kts 354°
2026-04-14 02:20 -6.95625 110.51546 7961 ft 295 kts 323°
2026-04-14 02:20 -6.94337 110.49941 8709 ft 301 kts 296°
2026-04-14 02:20 -6.93436 110.48030 9460 ft 304 kts 297°
2026-04-14 02:20 -6.92455 110.46132 10192 ft 307 kts 298°
2026-04-14 02:21 -6.91417 110.44227 10743 ft 319 kts 298°
2026-04-14 02:21 -6.90296 110.42210 10916 ft 342 kts 298°
2026-04-14 02:21 -6.89098 110.40066 11186 ft 359 kts 298°
2026-04-14 02:21 -6.87866 110.37853 11766 ft 365 kts 298°
2026-04-14 02:22 -6.86624 110.35610 12395 ft 369 kts 298°
2026-04-14 02:22 -6.85374 110.33347 13056 ft 371 kts 298°
2026-04-14 02:22 -6.84118 110.31064 13685 ft 374 kts 298°
2026-04-14 02:22 -6.82856 110.28762 14301 ft 377 kts 298°
2026-04-14 02:23 -6.81586 110.26441 14905 ft 380 kts 298°
2026-04-14 02:23 -6.80308 110.24101 15485 ft 383 kts 298°
2026-04-14 02:23 -6.79019 110.21743 16060 ft 386 kts 298°
2026-04-14 02:23 -6.77721 110.19372 16602 ft 388 kts 298°
2026-04-14 02:24 -6.76412 110.16986 17154 ft 391 kts 298°
2026-04-14 02:24 -6.75095 110.14584 17669 ft 393 kts 298°
2026-04-14 02:24 -6.73769 110.12167 18181 ft 396 kts 298°
2026-04-14 02:24 -6.72435 110.09735 18680 ft 398 kts 298°
2026-04-14 02:25 -6.71090 110.07285 19138 ft 402 kts 298°
2026-04-14 02:25 -6.69733 110.04816 19578 ft 405 kts 299°
2026-04-14 02:25 -6.68367 110.02327 20000 ft 408 kts 298°
2026-04-14 02:25 -6.67009 109.99853 20407 ft 411 kts 298°
2026-04-14 02:26 -6.65620 109.97320 20794 ft 415 kts 299°
2026-04-14 02:26 -6.64225 109.94775 21207 ft 418 kts 299°
2026-04-14 02:26 -6.62817 109.92206 21594 ft 421 kts 299°
2026-04-14 02:26 -6.61398 109.89623 21984 ft 423 kts 299°
2026-04-14 02:27 -6.59966 109.87022 22336 ft 426 kts 299°
2026-04-14 02:27 -6.58526 109.84406 22689 ft 430 kts 299°
2026-04-14 02:27 -6.57075 109.81765 23043 ft 432 kts 299°
2026-04-14 02:27 -6.55618 109.79110 23385 ft 435 kts 299°
2026-04-14 02:28 -6.54151 109.76438 23715 ft 438 kts 299°
2026-04-14 02:28 -6.52674 109.73752 24045 ft 440 kts 299°
2026-04-14 02:28 -6.51190 109.71054 24360 ft 443 kts 299°
2026-04-14 02:28 -6.49691 109.68332 24677 ft 445 kts 299°
2026-04-14 02:29 -6.48192 109.65603 24990 ft 448 kts 299°
2026-04-14 02:29 -6.46681 109.62854 25303 ft 450 kts 299°
2026-04-14 02:29 -6.45164 109.60094 25612 ft 452 kts 299°
2026-04-14 02:29 -6.43641 109.57324 25864 ft 454 kts 299°
2026-04-14 02:30 -6.42629 109.55485 25909 ft 453 kts 299°
2026-04-14 02:30 -6.41103 109.52711 25924 ft 454 kts 299°
2026-04-14 02:30 -6.39574 109.49935 25926 ft 454 kts 299°
2026-04-14 02:30 -6.38045 109.47160 25925 ft 454 kts 299°
2026-04-14 02:31 -6.36516 109.44385 25925 ft 454 kts 299°
2026-04-14 02:31 -6.34989 109.41610 25926 ft 454 kts 299°
2026-04-14 02:31 -6.32965 109.37940 25929 ft 453 kts 299°
2026-04-14 02:31 -6.31930 109.36064 25933 ft 454 kts 299°
2026-04-14 02:32 -6.30408 109.33286 25933 ft 454 kts 297°
2026-04-14 02:32 -6.29149 109.30382 25934 ft 453 kts 291°
2026-04-14 02:32 -6.28000 109.27479 25934 ft 453 kts 291°
2026-04-14 02:32 -6.26817 109.24493 25934 ft 453 kts 291°
2026-04-14 02:33 -6.25664 109.21591 25933 ft 453 kts 291°
2026-04-14 02:33 -6.24474 109.18608 25933 ft 453 kts 291°
2026-04-14 02:33 -6.23317 109.15708 25935 ft 454 kts 291°
2026-04-14 02:34 -6.20971 109.09822 25934 ft 454 kts 291°
2026-04-14 02:34 -6.19800 109.06880 25934 ft 453 kts 291°
2026-04-14 02:34 -6.18632 109.03937 25934 ft 453 kts 291°
2026-04-14 02:34 -6.17467 109.00999 25934 ft 453 kts 291°
2026-04-14 02:35 -6.16295 108.98051 25934 ft 453 kts 291°
2026-04-14 02:35 -6.15125 108.95116 25935 ft 453 kts 291°
2026-04-14 02:35 -6.13955 108.92177 25933 ft 453 kts 291°
2026-04-14 02:35 -6.12783 108.89240 25933 ft 450 kts 291°
2026-04-14 02:36 -6.11619 108.86330 25934 ft 448 kts 291°
2026-04-14 02:36 -6.10457 108.83427 25934 ft 448 kts 291°
2026-04-14 02:36 -6.09295 108.80522 25934 ft 448 kts 291°
2026-04-14 02:36 -6.08135 108.77615 25934 ft 448 kts 291°
2026-04-14 02:37 -6.06974 108.74707 25933 ft 448 kts 291°
2026-04-14 02:37 -6.05815 108.71792 25943 ft 450 kts 291°
2026-04-14 02:37 -6.04653 108.68877 25942 ft 449 kts 291°
2026-04-14 02:37 -6.03489 108.65970 25941 ft 448 kts 291°
2026-04-14 02:38 -6.02327 108.63064 25942 ft 448 kts 291°
2026-04-14 02:38 -6.01164 108.60160 25939 ft 448 kts 291°
2026-04-14 02:38 -6.00003 108.57259 25936 ft 448 kts 291°
2026-04-14 02:38 -5.98844 108.54358 25934 ft 447 kts 291°
2026-04-14 02:39 -5.97687 108.51456 25931 ft 447 kts 291°
2026-04-14 02:39 -5.96719 108.48491 25930 ft 447 kts 283°
2026-04-14 02:39 -5.96250 108.45453 25927 ft 446 kts 273°
2026-04-14 02:39 -5.96204 108.42338 25925 ft 446 kts 269°
2026-04-14 02:40 -5.96210 108.39222 25925 ft 446 kts 269°
2026-04-14 02:40 -5.96212 108.36105 25924 ft 446 kts 269°
2026-04-14 02:40 -5.96212 108.32988 25924 ft 446 kts 269°
2026-04-14 02:40 -5.96210 108.29871 25924 ft 446 kts 269°
2026-04-14 02:41 -5.96208 108.26754 25924 ft 446 kts 269°
2026-04-14 02:41 -5.96206 108.23636 25924 ft 446 kts 269°
2026-04-14 02:41 -5.96201 108.20519 25924 ft 446 kts 269°
2026-04-14 02:41 -5.96196 108.17402 25925 ft 446 kts 269°
2026-04-14 02:42 -5.96192 108.14285 25929 ft 446 kts 269°
2026-04-14 02:42 -5.96189 108.11170 25927 ft 446 kts 269°
2026-04-14 02:42 -5.96185 108.08050 25926 ft 446 kts 269°
2026-04-14 02:42 -5.96179 108.04933 25927 ft 446 kts 270°
2026-04-14 02:43 -5.96173 108.01816 25925 ft 446 kts 269°
2026-04-14 02:43 -5.96169 107.98699 25924 ft 446 kts 269°
2026-04-14 02:43 -5.96166 107.95582 25923 ft 446 kts 269°
2026-04-14 02:43 -5.96165 107.92466 25923 ft 446 kts 269°
2026-04-14 02:44 -5.96165 107.89390 25923 ft 446 kts 269°
2026-04-14 02:44 -5.96165 107.86282 25925 ft 446 kts 269°
2026-04-14 02:44 -5.96167 107.83166 25923 ft 446 kts 269°
2026-04-14 02:44 -5.96168 107.80049 25923 ft 446 kts 269°
2026-04-14 02:45 -5.96169 107.76935 25923 ft 446 kts 269°
2026-04-14 02:45 -5.96171 107.73821 25923 ft 446 kts 269°
2026-04-14 02:45 -5.96169 107.70708 25923 ft 446 kts 269°
2026-04-14 02:45 -5.96166 107.67598 25870 ft 443 kts 269°
2026-04-14 02:46 -5.96165 107.64536 25486 ft 434 kts 269°
2026-04-14 02:46 -5.96169 107.61513 24890 ft 431 kts 269°
2026-04-14 02:46 -5.96175 107.58533 24109 ft 422 kts 270°
2026-04-14 02:46 -5.96179 107.55621 23467 ft 409 kts 270°
2026-04-14 02:47 -5.96178 107.52819 22956 ft 394 kts 270°
2026-04-14 02:47 -5.96173 107.50121 22480 ft 379 kts 270°
2026-04-14 02:47 -5.96168 107.47484 22028 ft 377 kts 270°
2026-04-14 02:47 -5.96166 107.44859 21585 ft 375 kts 270°
2026-04-14 02:48 -5.96165 107.42242 21149 ft 374 kts 270°
2026-04-14 02:48 -5.96166 107.39639 20713 ft 372 kts 270°
2026-04-14 02:48 -5.96168 107.37082 20269 ft 370 kts 270°
2026-04-14 02:48 -5.96168 107.34507 19825 ft 367 kts 270°
2026-04-14 02:49 -5.96166 107.31949 19361 ft 366 kts 270°
2026-04-14 02:49 -5.96163 107.29399 18904 ft 364 kts 270°
2026-04-14 02:49 -5.96160 107.26858 18428 ft 363 kts 270°
2026-04-14 02:49 -5.96157 107.24322 17953 ft 362 kts 270°
2026-04-14 02:50 -5.96152 107.21797 17468 ft 361 kts 270°
2026-04-14 02:50 -5.96147 107.19277 16981 ft 360 kts 270°
2026-04-14 02:50 -5.96142 107.16764 16499 ft 359 kts 269°
2026-04-14 02:50 -5.96137 107.14262 16106 ft 356 kts 269°
2026-04-14 02:51 -5.96132 107.11780 15642 ft 354 kts 269°
2026-04-14 02:51 -5.96128 107.09314 15149 ft 354 kts 269°
2026-04-14 02:51 -5.96125 107.06865 14849 ft 348 kts 269°
2026-04-14 02:51 -5.96119 107.04442 14406 ft 346 kts 269°
2026-04-14 02:52 -5.96113 107.02030 13981 ft 343 kts 269°
2026-04-14 02:52 -5.96108 106.99653 13271 ft 338 kts 269°
2026-04-14 02:52 -5.96103 106.97307 12627 ft 333 kts 268°
2026-04-14 02:52 -5.96097 106.94997 12129 ft 329 kts 268°
2026-04-14 02:53 -5.96091 106.92708 11644 ft 326 kts 268°
2026-04-14 02:53 -5.96085 106.90443 11162 ft 324 kts 268°
2026-04-14 02:53 -5.96081 106.88186 10683 ft 322 kts 268°
2026-04-14 02:53 -5.96075 106.85931 10260 ft 322 kts 269°
2026-04-14 02:54 -5.96066 106.83723 10130 ft 310 kts 269°
2026-04-14 02:54 -5.96057 106.81623 10012 ft 299 kts 269°
2026-04-14 02:54 -5.96092 106.79548 9979 ft 287 kts 262°
2026-04-14 02:54 -5.96521 106.77628 9857 ft 288 kts 248°
2026-04-14 02:55 -5.97270 106.75763 9506 ft 286 kts 246°
2026-04-14 02:55 -5.98028 106.73913 9116 ft 286 kts 246°
2026-04-14 02:55 -5.98795 106.72047 8708 ft 285 kts 246°
2026-04-14 02:55 -5.99545 106.70218 8350 ft 283 kts 246°
2026-04-14 02:56 -6.00291 106.68392 8002 ft 280 kts 247°
2026-04-14 02:56 -6.01028 106.66583 7620 ft 279 kts 247°
2026-04-14 02:56 -6.01758 106.64782 7218 ft 278 kts 247°
2026-04-14 02:56 -6.02480 106.62994 6832 ft 276 kts 247°
2026-04-14 02:57 -6.03196 106.61215 6548 ft 271 kts 248°
2026-04-14 02:57 -6.03890 106.59499 6417 ft 259 kts 247°
2026-04-14 02:57 -6.04556 106.57852 6237 ft 251 kts 247°
2026-04-14 02:57 -6.05202 106.56252 5867 ft 251 kts 247°
2026-04-14 02:58 -6.05855 106.54640 5569 ft 248 kts 247°
2026-04-14 02:58 -6.06501 106.53043 5139 ft 245 kts 247°
2026-04-14 02:58 -6.07143 106.51450 4603 ft 246 kts 248°
2026-04-14 02:58 -6.07784 106.49857 4221 ft 245 kts 248°
2026-04-14 02:59 -6.08425 106.48266 3898 ft 244 kts 247°
2026-04-14 02:59 -6.09065 106.46680 3542 ft 244 kts 248°
2026-04-14 02:59 -6.09688 106.45139 3427 ft 234 kts 247°
2026-04-14 02:59 -6.10319 106.43640 3298 ft 232 kts 240°
2026-04-14 03:00 -6.11434 106.42524 3191 ft 228 kts 204°
2026-04-14 03:00 -6.12972 106.42270 2917 ft 226 kts 170°
2026-04-14 03:00 -6.14506 106.42555 2643 ft 223 kts 168°
2026-04-14 03:00 -6.16013 106.42864 2364 ft 221 kts 159°
2026-04-14 03:01 -6.17238 106.43708 2165 ft 211 kts 126°
2026-04-14 03:01 -6.17776 106.45019 2104 ft 200 kts 95°
2026-04-14 03:01 -6.17912 106.46401 2103 ft 198 kts 95°
2026-04-14 03:01 -6.18045 106.47772 2104 ft 197 kts 94°
2026-04-14 03:02 -6.17959 106.49111 2127 ft 189 kts 74°
2026-04-14 03:02 -6.17498 106.50339 2111 ft 187 kts 68°
2026-04-14 03:02 -6.17014 106.51549 2106 ft 186 kts 68°
2026-04-14 03:02 -6.16543 106.52731 2110 ft 173 kts 68°
2026-04-14 03:03 -6.16116 106.53801 2051 ft 158 kts 68°
2026-04-14 03:03 -6.15717 106.54806 1902 ft 152 kts 68°
2026-04-14 03:03 -6.15330 106.55778 1738 ft 148 kts 68°
2026-04-14 03:03 -6.14950 106.56733 1544 ft 146 kts 67°
2026-04-14 03:04 -6.14577 106.57667 1361 ft 146 kts 67°
2026-04-14 03:04 -6.14201 106.58611 1166 ft 145 kts 67°
2026-04-14 03:04 -6.13827 106.59550 983 ft 145 kts 67°
2026-04-14 03:04 -6.13452 106.60487 782 ft 144 kts 67°
2026-04-14 03:05 -6.13045 106.61481 564 ft 144 kts 68°
2026-04-14 03:05 -6.12684 106.62422 397 ft 145 kts 67°
2026-04-14 03:05 -6.12307 106.63359 212 ft 145 kts 67°
2026-04-14 03:05 -6.11936 106.64296 52 ft 144 kts 68°
2026-04-14 03:06 -6.11606 106.65124 42 ft 107 kts 68°
2026-04-14 03:06 -6.11392 106.65655 39 ft 57 kts 68°
2026-04-14 03:06 -6.11282 106.65935 40 ft 38 kts 69°
2026-04-14 03:06 -6.11248 106.66123 40 ft 24 kts 91°
2026-04-14 03:07 -6.11271 106.66249 40 ft 12 kts 116°
2026-04-14 03:07 -6.11318 106.66280 39 ft 7 kts 188°
2026-04-14 03:07 -6.11353 106.66247 37 ft 7 kts 242°
2026-04-14 03:07 -6.11369 106.66207 39 ft 6 kts 248°
2026-04-14 03:08 -6.11382 106.66174 39 ft 5 kts 248°
2026-04-14 03:08 -6.11393 106.66147 39 ft 4 kts 248°
2026-04-14 03:08 -6.11414 106.66094 38 ft 15 kts 248°
2026-04-14 03:08 -6.11469 106.65958 38 ft 23 kts 248°
2026-04-14 03:09 -6.11523 106.65820 38 ft 19 kts 248°
2026-04-14 03:09 -6.11570 106.65702 36 ft 18 kts 248°
2026-04-14 03:09 -6.11617 106.65584 36 ft 18 kts 248°
2026-04-14 03:09 -6.11664 106.65468 38 ft 18 kts 248°
2026-04-14 03:10 -6.11708 106.65357 38 ft 17 kts 248°
2026-04-14 03:10 -6.11748 106.65254 39 ft 15 kts 246°
2026-04-14 03:10 -6.11785 106.65163 39 ft 13 kts 248°
2026-04-14 03:10 -6.11817 106.65083 39 ft 12 kts 248°
2026-04-14 03:11 -6.11848 106.65015 38 ft 10 kts 233°
2026-04-14 03:11 -6.11906 106.65009 39 ft 9 kts 158°
2026-04-14 03:11 -6.11959 106.65028 38 ft 8 kts 174°
2026-04-14 03:11 -6.12008 106.65020 37 ft 7 kts 189°
2026-04-14 03:12 -6.12050 106.65013 38 ft 6 kts 189°
2026-04-14 03:12 -6.12087 106.65007 38 ft 5 kts 189°
2026-04-14 03:12 -6.12116 106.64996 38 ft 6 kts 220°
2026-04-14 03:12 -6.12151 106.64927 38 ft 10 kts 248°
2026-04-14 03:13 -6.12177 106.64864 38 ft 9 kts 247°
2026-04-14 03:13 -6.12210 106.64814 37 ft 8 kts 231°
2026-04-14 03:13 -6.12233 106.64795 38 ft 3 kts 196°
2026-04-14 03:13 -6.12241 106.64807 38 ft 5 kts 107°
2026-04-14 03:14 -6.12268 106.64850 38 ft 0 kts 138°
2026-04-14 03:14 -6.12276 106.64856 38 ft 3 kts 138°
2026-04-14 03:14 -6.12282 106.64862 38 ft 0 kts 137°